Year,Month,Day,Hour,Minute,Value (Times are PST for temperature in C)
2014,11,22,07,55,6.10
2014,11,22,07,56,6.10
2014,11,22,07,57,6.10
2014,11,22,07,58,6.10
2014,11,22,07,59,6.10
2014,11,22,08,00,6.10
2014,11,22,08,01,6.10
2014,11,22,08,02,6.00
2014,11,22,08,03,6.00
2014,11,22,08,04,6.00
2014,11,22,08,05,6.00
2014,11,22,08,06,6.00
2014,11,22,08,07,6.00
2014,11,22,08,08,6.00
2014,11,22,08,09,5.90
2014,11,22,08,10,5.90
2014,11,22,08,11,5.90
2014,11,22,08,12,5.90
2014,11,22,08,13,5.90
2014,11,22,08,14,5.90
2014,11,22,08,15,5.90
2014,11,22,08,16,5.90
2014,11,22,08,17,5.90
2014,11,22,08,18,5.90
2014,11,22,08,19,5.90
2014,11,22,10,00,7.70
2014,11,22,10,01,7.70
2014,11,22,10,02,7.80
2014,11,22,10,03,7.80
2014,11,22,10,04,7.80
2014,11,22,10,05,7.80
2014,11,22,10,06,7.80
2014,11,22,10,07,7.80
2014,11,22,10,08,7.90
2014,11,22,10,09,7.90
2014,11,22,10,10,7.90
2014,11,22,10,11,8.00
2014,11,22,10,12,8.00
2014,11,22,10,13,8.10
2014,11,22,10,14,8.20
2014,11,22,10,15,8.20
2014,11,22,10,16,8.20
2014,11,22,10,17,8.30
2014,11,22,10,18,8.30
2014,11,22,10,19,8.30
2014,11,22,10,20,8.30
2014,11,22,10,21,8.40
2014,11,22,10,22,8.40
2014,11,22,10,23,8.40
2014,11,22,10,24,8.40
2014,11,22,10,25,8.40
2014,11,22,10,26,8.50
2014,11,22,10,27,8.50
2014,11,22,10,28,8.50
2014,11,22,10,29,8.50
2014,11,22,10,30,8.50
2014,11,22,10,31,8.50
2014,11,22,10,32,8.50
2014,11,22,10,33,8.40
2014,11,22,10,34,8.40
2014,11,22,10,35,8.30
2014,11,22,10,36,8.40
2014,11,22,10,37,8.40
2014,11,22,10,38,8.50
2014,11,22,10,39,8.50
2014,11,22,10,40,8.60
2014,11,22,10,41,8.60
2014,11,22,10,42,8.60
2014,11,22,10,43,8.60
2014,11,22,10,44,8.50
2014,11,22,10,45,8.50
2014,11,22,10,46,8.50
2014,11,22,10,47,8.40
2014,11,22,10,48,8.40
2014,11,22,10,49,8.50
2014,11,22,10,50,8.50
2014,11,22,10,51,8.50
2014,11,22,10,52,8.60
2014,11,22,10,53,8.70
2014,11,22,10,54,8.70
2014,11,22,10,55,8.80
2014,11,22,10,56,8.90
2014,11,22,10,57,8.90
2014,11,22,10,58,9.00
2014,11,22,10,59,9.00
2014,11,22,11,00,9.00
2014,11,22,11,01,9.00
2014,11,22,11,02,9.00
2014,11,22,11,03,9.00
2014,11,22,11,04,9.00
2014,11,22,11,05,9.00
2014,11,22,11,06,9.10
2014,11,22,11,07,9.10
2014,11,22,11,08,9.10
2014,11,22,11,09,9.20
2014,11,22,11,10,9.20
2014,11,22,11,11,9.20
2014,11,22,11,12,9.20
2014,11,22,11,13,9.20
2014,11,22,11,14,9.20
2014,11,22,11,15,9.20
2014,11,22,11,16,9.30
2014,11,22,11,17,9.30
2014,11,22,11,18,9.30
2014,11,22,11,19,9.20
2014,11,22,11,20,9.30
2014,11,22,11,21,9.30
2014,11,22,11,22,9.30
2014,11,22,11,23,9.30
2014,11,22,11,24,9.40
2014,11,22,11,25,9.40
2014,11,22,11,26,9.40
2014,11,22,11,27,9.50
2014,11,22,11,28,9.50
2014,11,22,11,29,9.50
2014,11,22,11,30,9.60
2014,11,22,11,31,9.70
2014,11,22,11,32,9.70
2014,11,22,11,33,9.70
2014,11,22,11,34,9.70
2014,11,22,11,35,9.80
2014,11,22,11,36,9.90
2014,11,22,11,37,9.90
2014,11,22,11,38,9.80
2014,11,22,11,39,9.80
2014,11,22,11,40,9.90
2014,11,22,11,41,9.90
2014,11,22,11,42,9.90
2014,11,22,11,43,9.90
2014,11,22,11,44,10.00
2014,11,22,11,45,10.10
2014,11,22,11,46,10.10
2014,11,22,11,47,10.10
2014,11,22,11,48,10.10
2014,11,22,11,49,10.10
2014,11,22,11,50,10.20
2014,11,22,11,51,10.20
2014,11,22,11,52,10.20
2014,11,22,11,53,10.20
2014,11,22,11,54,10.20
2014,11,22,11,55,10.20
2014,11,22,11,56,10.30
2014,11,22,11,57,10.30
2014,11,22,11,58,10.40
2014,11,22,11,59,10.40
2014,11,22,12,00,10.40
2014,11,22,12,01,10.30
2014,11,22,12,02,10.20
2014,11,22,12,03,10.20
2014,11,22,12,04,10.10
2014,11,22,12,05,10.10
2014,11,22,12,06,10.10
2014,11,22,12,07,10.10
2014,11,22,12,08,10.00
2014,11,22,12,09,9.90
2014,11,22,12,10,9.90
2014,11,22,12,11,9.90
2014,11,22,12,12,9.90
2014,11,22,12,13,9.90
2014,11,22,12,14,9.80
2014,11,22,12,15,9.80
2014,11,22,12,16,9.80
2014,11,22,12,17,9.90
2014,11,22,12,18,9.90
2014,11,22,12,19,9.90
2014,11,22,12,20,10.10
2014,11,22,12,21,10.10
2014,11,22,12,22,10.10
2014,11,22,12,23,10.00
2014,11,22,12,24,10.00
2014,11,22,12,25,10.10
2014,11,22,12,26,10.10
2014,11,22,12,27,10.10
2014,11,22,12,28,10.20
2014,11,22,12,29,10.20
2014,11,22,12,30,10.20
2014,11,22,12,31,10.30
2014,11,22,12,32,10.30
2014,11,22,12,33,10.40
2014,11,22,12,34,10.40
2014,11,22,12,35,10.40
2014,11,22,12,36,10.40
2014,11,22,12,37,10.40
2014,11,22,12,38,10.40
2014,11,22,12,39,10.40
2014,11,22,12,40,10.40
2014,11,22,12,41,10.40
2014,11,22,12,42,10.40
2014,11,22,12,43,10.50
2014,11,22,12,44,10.60
2014,11,22,12,45,10.70
2014,11,22,12,46,10.70
2014,11,22,12,47,10.70
2014,11,22,12,48,10.70
2014,11,22,12,49,10.80
2014,11,22,12,50,10.80
2014,11,22,12,51,10.90
2014,11,22,12,52,10.90
2014,11,22,12,53,10.80
2014,11,22,12,54,10.80
2014,11,22,12,55,10.80
2014,11,22,12,56,10.70
2014,11,22,12,57,10.70
2014,11,22,12,58,10.70
2014,11,22,12,59,10.60
2014,11,22,13,00,10.60
2014,11,22,13,01,10.60
2014,11,22,13,02,10.70
2014,11,22,13,03,10.70
2014,11,22,13,04,10.80
2014,11,22,13,05,10.80
2014,11,22,13,06,10.80
2014,11,22,13,07,10.80
2014,11,22,13,08,10.80
2014,11,22,13,09,10.90
2014,11,22,13,10,10.90
2014,11,22,13,11,10.90
2014,11,22,13,12,11.00
2014,11,22,13,13,11.10
2014,11,22,13,14,11.10
2014,11,22,13,15,11.10
2014,11,22,13,16,11.10
2014,11,22,13,17,11.10
2014,11,22,13,18,11.00
2014,11,22,13,19,10.90
2014,11,22,13,20,10.90
2014,11,22,13,21,10.90
2014,11,22,13,22,10.80
2014,11,22,13,23,10.70
2014,11,22,13,24,10.70
2014,11,22,13,25,10.70
2014,11,22,13,26,10.70
2014,11,22,13,27,10.70
2014,11,22,13,28,10.70
2014,11,22,13,29,10.70
2014,11,22,13,30,10.70
2014,11,22,13,31,10.60
2014,11,22,13,32,10.60
2014,11,22,13,33,10.60
2014,11,22,13,34,10.40
2014,11,22,13,35,10.40
2014,11,22,13,36,10.40
2014,11,22,13,37,10.40
2014,11,22,13,38,10.30
2014,11,22,13,39,10.30
2014,11,22,13,40,10.30
2014,11,22,13,41,10.30
2014,11,22,13,42,10.30
2014,11,22,13,43,10.30
2014,11,22,13,44,10.30
2014,11,22,13,45,10.30
2014,11,22,13,46,10.30
2014,11,22,13,47,10.30
2014,11,22,13,48,10.30
2014,11,22,13,49,10.40
2014,11,22,13,50,10.40
2014,11,22,13,51,10.40
2014,11,22,13,52,10.30
2014,11,22,13,53,10.30
2014,11,22,13,54,10.30
2014,11,22,13,55,10.20
2014,11,22,13,56,10.20
2014,11,22,13,57,10.20
2014,11,22,13,58,10.20
2014,11,22,13,59,10.20
2014,11,22,14,00,10.20
2014,11,22,14,01,10.20
2014,11,22,14,02,10.30
2014,11,22,14,03,10.40
2014,11,22,14,04,10.40
2014,11,22,14,05,10.40
2014,11,22,14,06,10.40
2014,11,22,14,07,10.50
2014,11,22,14,08,10.60
2014,11,22,14,09,10.60
2014,11,22,14,10,10.70
2014,11,22,14,11,10.80
2014,11,22,14,12,10.90
2014,11,22,14,13,11.00
2014,11,22,14,14,11.10
2014,11,22,14,15,11.10
2014,11,22,14,16,11.10
2014,11,22,14,17,11.20
2014,11,22,14,18,11.10
2014,11,22,14,19,11.10
2014,11,22,14,20,11.10
2014,11,22,14,21,11.10
2014,11,22,14,22,11.10
2014,11,22,14,23,11.10
2014,11,22,14,24,11.10
2014,11,22,14,25,11.10
2014,11,22,14,26,11.10
2014,11,22,14,27,11.10
2014,11,22,14,28,11.20
2014,11,22,14,29,11.10
2014,11,22,14,30,11.10
2014,11,22,14,31,11.10
2014,11,22,14,32,11.10
2014,11,22,14,33,11.10
2014,11,22,14,34,11.10
2014,11,22,14,35,11.00
2014,11,22,14,36,10.90
2014,11,22,14,37,10.90
2014,11,22,14,38,10.90
2014,11,22,14,39,10.90
2014,11,22,14,40,10.90
2014,11,22,14,41,10.90
2014,11,22,14,42,10.90
2014,11,22,14,43,10.90
2014,11,22,14,44,10.90
2014,11,22,14,45,10.90
2014,11,22,14,46,10.90
2014,11,22,14,47,10.90
2014,11,22,14,48,10.80
2014,11,22,14,49,10.80
2014,11,22,14,50,10.70
2014,11,22,14,51,10.60
2014,11,22,14,52,10.60
2014,11,22,14,53,10.50
2014,11,22,14,54,10.40
2014,11,22,14,55,10.40
2014,11,22,14,56,10.30
2014,11,22,14,57,10.20
2014,11,22,14,58,10.20
2014,11,22,14,59,10.30
2014,11,22,15,00,10.30
2014,11,22,15,01,10.30
2014,11,22,15,02,10.20
2014,11,22,15,03,10.20
2014,11,22,15,04,10.20
2014,11,22,15,05,10.20
2014,11,22,15,06,10.10
2014,11,22,15,07,10.10
2014,11,22,15,08,10.10
2014,11,22,15,09,10.10
2014,11,22,15,10,10.10
2014,11,22,15,11,9.90
2014,11,22,15,12,9.90
2014,11,22,15,13,9.90
2014,11,22,15,14,9.90
2014,11,22,15,15,9.80
2014,11,22,15,16,9.80
2014,11,22,15,17,9.70
2014,11,22,15,18,9.70
2014,11,22,15,19,9.70
2014,11,22,15,20,9.70
2014,11,22,15,21,9.70
2014,11,22,15,22,9.70
2014,11,22,15,23,9.60
2014,11,22,15,24,9.50
2014,11,22,15,25,9.50
2014,11,22,15,26,9.40
2014,11,22,15,27,9.40
2014,11,22,15,28,9.30
2014,11,22,15,29,9.30
2014,11,22,15,30,9.30
2014,11,22,15,31,9.20
2014,11,22,15,32,9.20
2014,11,22,15,33,9.20
2014,11,22,15,34,9.20
2014,11,22,15,35,9.10
2014,11,22,15,36,9.10
2014,11,22,15,37,9.00
2014,11,22,15,38,9.00
2014,11,22,15,39,9.00
2014,11,22,15,40,9.00
2014,11,22,15,41,8.90
2014,11,22,15,42,8.90
2014,11,22,15,43,8.90
2014,11,22,15,44,8.90
2014,11,22,15,45,8.90
2014,11,22,15,46,8.80
2014,11,22,15,47,8.80
2014,11,22,15,48,8.80
2014,11,22,15,49,8.80
2014,11,22,15,50,8.70
2014,11,22,15,51,8.70
2014,11,22,15,52,8.70
2014,11,22,15,53,8.70
2014,11,22,15,54,8.70
2014,11,22,15,55,8.70
2014,11,22,15,56,8.60
2014,11,22,15,57,8.60
2014,11,22,15,58,8.60
2014,11,22,15,59,8.50
2014,11,22,16,00,8.50
2014,11,22,16,01,8.50
2014,11,22,16,02,8.50
2014,11,22,16,03,8.40
2014,11,22,16,04,8.40
2014,11,22,16,05,8.30
2014,11,22,16,06,8.30
2014,11,22,16,07,8.30
2014,11,22,16,08,8.20
2014,11,22,16,09,8.20
2014,11,22,16,10,8.20
2014,11,22,16,11,8.20
2014,11,22,16,12,8.20
2014,11,22,16,13,8.10
2014,11,22,16,14,8.10
2014,11,22,16,15,8.10
2014,11,22,16,16,8.00
2014,11,22,16,17,8.00
2014,11,22,16,18,8.00
2014,11,22,16,19,7.90
2014,11,22,16,20,7.90
2014,11,22,16,21,7.90
2014,11,22,16,22,7.80
2014,11,22,16,23,7.80
2014,11,22,16,24,7.80
2014,11,22,16,25,7.80
2014,11,22,16,26,7.80
2014,11,22,16,27,7.70
2014,11,22,16,28,7.70
2014,11,22,16,29,7.60
2014,11,22,16,30,7.60
2014,11,22,16,31,7.60
2014,11,22,16,32,7.60
2014,11,22,16,33,7.50
2014,11,22,16,34,7.50
2014,11,22,16,35,7.50
2014,11,22,16,36,7.40
2014,11,22,16,37,7.40
2014,11,22,16,38,7.30
2014,11,22,16,39,7.30
2014,11,22,16,40,7.30
2014,11,22,16,41,7.30
2014,11,22,16,42,7.30
2014,11,22,16,43,7.30
2014,11,22,16,44,7.20
2014,11,22,16,45,7.20
2014,11,22,16,46,7.20
2014,11,22,16,47,7.20
2014,11,22,16,48,7.10
2014,11,22,16,49,7.10
2014,11,22,16,50,7.10
2014,11,22,16,51,7.10
2014,11,22,16,52,7.00
2014,11,22,16,53,7.00
2014,11,22,16,54,7.00
2014,11,22,16,55,7.00
2014,11,22,16,56,7.00
2014,11,22,16,57,7.00
2014,11,22,16,58,7.00
2014,11,22,16,59,6.90
2014,11,22,17,00,6.90
2014,11,22,17,01,6.90
2014,11,22,17,02,6.90
2014,11,22,17,03,6.90
2014,11,22,17,04,6.90
2014,11,22,17,05,6.90
2014,11,22,17,06,6.80
2014,11,22,17,07,6.80
2014,11,22,17,08,6.80
2014,11,22,17,09,6.80
2014,11,22,17,10,6.80
2014,11,22,17,11,6.80
2014,11,22,17,12,6.80
2014,11,22,17,13,6.80
2014,11,22,17,14,6.80
2014,11,22,17,15,6.80
2014,11,22,17,16,6.70
2014,11,22,17,17,6.70
2014,11,22,17,18,6.70
2014,11,22,17,19,6.60
2014,11,22,17,20,6.60
2014,11,22,17,21,6.60
2014,11,22,17,22,6.60
2014,11,22,17,23,6.60
2014,11,22,17,24,6.60
2014,11,22,17,25,6.60
2014,11,22,17,26,6.50
2014,11,22,17,27,6.40
2014,11,22,17,28,6.40
2014,11,22,17,29,6.40
2014,11,22,17,30,6.40
2014,11,22,17,31,6.40
2014,11,22,17,32,6.40
2014,11,22,17,33,6.40
2014,11,22,17,34,6.40
2014,11,22,17,35,6.40
2014,11,22,17,36,6.30
2014,11,22,17,37,6.30
2014,11,22,17,38,6.30
2014,11,22,17,39,6.30
2014,11,22,17,40,6.30
2014,11,22,17,41,6.30
2014,11,22,17,42,6.20
2014,11,22,17,43,6.20
2014,11,22,17,44,6.20
2014,11,22,17,45,6.20
2014,11,22,17,46,6.20
2014,11,22,17,47,6.20
2014,11,22,17,48,6.20
2014,11,22,17,49,6.10
2014,11,22,17,50,6.10
2014,11,22,17,51,6.10
2014,11,22,17,52,6.00
2014,11,22,17,53,6.00
2014,11,22,17,54,6.00
2014,11,22,17,55,6.00
2014,11,22,17,56,6.00
2014,11,22,17,57,6.00
2014,11,22,17,58,5.90
2014,11,22,17,59,5.90
2014,11,22,18,00,5.90
2014,11,22,18,01,6.00
2014,11,22,18,02,6.10
2014,11,22,18,03,6.10
2014,11,22,18,04,6.20
2014,11,22,18,05,6.20
2014,11,22,18,06,6.20
2014,11,22,18,07,6.30
2014,11,22,18,08,6.30
2014,11,22,18,09,6.30
2014,11,22,18,10,6.30
2014,11,22,18,11,6.40
2014,11,22,18,12,6.40
2014,11,22,18,13,6.40
2014,11,22,18,14,6.40
2014,11,22,18,15,6.50
2014,11,22,18,16,6.60
2014,11,22,18,17,6.60
2014,11,22,18,18,6.60
2014,11,22,18,19,6.60
2014,11,22,18,20,6.60
2014,11,22,18,21,6.60
2014,11,22,18,22,6.60
2014,11,22,18,23,6.60
2014,11,22,18,24,6.60
2014,11,22,18,25,6.70
2014,11,22,18,26,6.60
2014,11,22,18,27,6.60
2014,11,22,18,28,6.70
2014,11,22,18,29,6.70
2014,11,22,18,30,6.70
2014,11,22,18,31,6.70
2014,11,22,18,32,6.70
2014,11,22,18,33,6.70
2014,11,22,18,34,6.70
2014,11,22,18,35,6.70
2014,11,22,18,36,6.60
2014,11,22,18,37,6.60
2014,11,22,18,38,6.60
2014,11,22,18,39,6.60
2014,11,22,18,40,6.60
2014,11,22,18,41,6.60
2014,11,22,18,42,6.60
2014,11,22,18,43,6.60
2014,11,22,18,44,6.60
2014,11,22,18,45,6.60
2014,11,22,18,46,6.60
2014,11,22,18,47,6.60
2014,11,22,18,48,6.60
2014,11,22,18,49,6.60
2014,11,22,18,50,6.60
2014,11,22,18,51,6.60
2014,11,22,18,52,6.60
2014,11,22,18,53,6.60
